Flag for U.S.A. Weather past 2 weeks in Montgomery, Alabama, U.S.A.

Now
74 °F

Scattered clouds.


Feels Like: 74 °F
Forecast: 67 / 78 °F
Wind: 13 mph from South

Location: Maxwell Air Force Base / Montgomery

Current Time: Apr 19, 2015 at 2:58:48 PM

Latest Report: Apr 19, 2015 at 1:58 PM


Visibility: 10 mi

Pressure: 29.75 "Hg

Humidity: 83%

Dew point: 69 °F

Location of MontgomeryLocation

Historic Weather in Montgomery — Graph

°F

Montgomery temperature yesterday

Maximum temperature yesterday: 73 °F (at 1:58 PM)
Minimum temperature yesterday: 63 °F (at 3:58 AM)
Average temperature yesterday: 68 °F

Past Weeks' High & Low Weather Summary

 TemperatureHumidityPressure
High86 °F (Apr 9, 3:58 PM)100% (Apr 6, 9:00 PM)30.23 "Hg (Apr 6, 9:00 PM)
Low45 °F (Apr 5, 6:58 AM)30% (Apr 11, 3:58 PM)29.75 "Hg (Apr 19, 1:58 PM)
Average68 °F83%30.07 "Hg
* Reported Apr 4 1:58 PM — Apr 19 1:58 PM, Montgomery, Weather by CustomWeather, © 2015

Note: Actual official high and low records may vary slightly from our data, if they occured in-between our weather recording intervals... More about our weather records

Advertising

Montgomery weather history for previous 24 hours

 ConditionsComfort  
Time TempWeatherWind HumidityBarometerVisibility
1:58 PM
Sun, Apr 19
74 °FScattered clouds.13 mph83%29.75 "Hg10 mi
1:03 PM73 °FScattered clouds.6 mph89%29.77 "Hg10 mi
12:58 PM73 °FPartly sunny.7 mph83%29.78 "Hg10 mi
11:58 AM73 °FPartly sunny.10 mph87%29.79 "Hg10 mi
11:03 AM73 °FPartly sunny.6 mph89%29.80 "Hg10 mi
10:58 AM72 °FScattered clouds.9 mph91%29.80 "Hg10 mi
9:58 AM71 °FPartly sunny.8 mph94%29.81 "Hg10 mi
8:58 AM71 °FSunny.6 mph95%29.76 "Hg10 mi
7:58 AM70 °FLight rain. Fog.8 mph96%29.78 "Hg6 mi
6:58 AM69 °FPassing clouds.2 mph98%29.78 "Hg9 mi
5:58 AM69 °FPassing clouds.6 mph97%29.78 "Hg10 mi
5:03 AM70 °FPartly cloudy.6 mph94%29.80 "Hg10 mi
4:58 AM70 °FPassing clouds.6 mph97%29.80 "Hg10 mi
4:03 AM70 °FMostly cloudy.2 mph94%29.81 "Hg10 mi
3:58 AM70 °FPartly cloudy.2 mph94%29.81 "Hg10 mi
2:58 AM70 °FPassing clouds.6 mph97%29.80 "Hg9 mi
1:58 AM70 °FClear.7 mph97%29.82 "Hg8 mi
12:58 AM70 °FPassing clouds.10 mph97%29.83 "Hg9 mi
11:58 PM
Sat, Apr 18
70 °FLight rain. Fog.9 mph96%29.86 "Hg5 mi
10:58 PM70 °FPassing clouds.3 mph94%29.89 "Hg7 mi
9:58 PM71 °FLight rain. Fog.5 mph92%29.91 "Hg6 mi
9:00 PM72 °FPassing clouds.2 mph88%29.91 "Hg10 mi
8:58 PM71 °FPassing clouds.3 mph89%29.91 "Hg10 mi
7:58 PM70 °FCloudy.5 mph91%29.90 "Hg10 mi
6:58 PM71 °FScattered clouds.2 mph88%29.89 "Hg10 mi
5:58 PM72 °FPartly sunny.2 mph84%29.90 "Hg10 mi
4:58 PM72 °FOvercast.3 mph82%29.91 "Hg10 mi
3:58 PM73 °FOvercast.1 mph80%29.90 "Hg10 mi
2:58 PM73 °FOvercast.6 mph77%29.91 "Hg10 mi
Weather by CustomWeather, © 2015

See weather overviewHow to use our weather pages